Galesburg, IL

2:06 PM CST on January 20, 2017 (GMT -0600)
Galesburg Municipal

Weather History for KGBG - December, 2013

Change the Weather History Date:

Friday, December 6, 2013

  Actual Average Record
Temperature  
Mean Temperature 12 °F -  
Max Temperature 17 °F 36 °F 65 °F (1951)
Min Temperature 7 °F 22 °F -6 °F (1977)
Degree Days  
Heating Degree Days 53    
Moisture  
Dew Point 7 °F    
Average Humidity 76    
Maximum Humidity 88    
Minimum Humidity 61    
Precipitation  
Precipitation 0.00 in - - ()
Sea Level Pressure  
Sea Level Pressure 30.43 in    
Wind  
Wind Speed 11 mph (NW)    
Max Wind Speed 14 mph    
Max Gust Speed 21 mph    
Visibility 10 miles    
Events      
Averages and records for this station are not official NWS values.
T = Trace of Precipitation, MM = Missing Value Source: NWS Daily Summary

Daily Weather History Graph

Daily Weather History Graph

Search for Another Location

Airport or City:

Trip Planner

Search our weather history database for the weather conditions in past years. The results will help you decide how hot, cold, wet, or windy it might be!

Date:

Astronomy

Dec. 06, 2013 Rise Set
Actual Time 7:12 AM CST 4:33 PM CST
Civil Twilight 6:41 AM CST 5:04 PM CST
Nautical Twilight 6:07 AM CST 5:38 PM CST
Astronomical Twilight 5:33 AM CST 6:11 PM CST
Moon 10:16 AM CST (12/6) 9:06 PM CST (12/6)
Length of Visible Light 10h 22m
Length of Day
9h 21m
Waxing Crescent, 19% of the Moon is Illuminated
Dec 6
Waxing Crescent
Dec 9
First Quarter
Dec 17
Full
Dec 25
Last Quarter
Jan 1
New

Hourly Weather History & Observations

Time (CST) Temp. Windchill Dew Point Humidity Pressure Visibility Wind Dir Wind Speed Gust Speed Precip Events Conditions
12:15 AM 17.2 °F 3.9 °F 10.9 °F 76% 30.30 in 10.0 mi NW 12.7 mph 16.1 mph N/A   Scattered Clouds
12:35 AM 16.9 °F 3.4 °F 10.4 °F 76% 30.31 in 10.0 mi NW 12.7 mph - N/A   Scattered Clouds
12:55 AM 16.7 °F 3.8 °F 10.9 °F 78% 30.30 in 10.0 mi WNW 11.5 mph - N/A   Mostly Cloudy
1:15 AM 16.7 °F 4.5 °F 10.6 °F 77% 30.32 in 10.0 mi NW 10.4 mph - N/A   Mostly Cloudy
1:35 AM 16.5 °F 3.6 °F 10.4 °F 77% 30.33 in 10.0 mi WNW 11.5 mph - N/A   Mostly Cloudy
1:55 AM 16.5 °F 3.6 °F 10.6 °F 77% 30.34 in 10.0 mi NW 11.5 mph 16.1 mph N/A   Overcast
2:15 AM 16.3 °F 4.9 °F 10.4 °F 77% 30.34 in 10.0 mi NW 9.2 mph - N/A   Overcast
2:35 AM 16.2 °F 3.2 °F 10.9 °F 80% 30.34 in 10.0 mi WNW 11.5 mph 17.3 mph N/A   Scattered Clouds
2:55 AM 15.8 °F 2.1 °F 10.8 °F 80% 30.33 in 10.0 mi NW 12.7 mph 16.1 mph N/A   Scattered Clouds
3:15 AM 15.4 °F 2.3 °F 10.2 °F 80% 30.33 in 10.0 mi NW 11.5 mph - N/A   Scattered Clouds
3:35 AM 15.4 °F 3.0 °F 10.4 °F 80% 30.33 in 10.0 mi NW 10.4 mph 16.1 mph N/A   Clear
3:55 AM 14.9 °F 3.1 °F 10.4 °F 82% 30.34 in 10.0 mi NW 9.2 mph - N/A   Scattered Clouds
4:15 AM 14.5 °F 1.9 °F 10.2 °F 83% 30.34 in 10.0 mi NW 10.4 mph - N/A   Mostly Cloudy
4:35 AM 14.5 °F 0.5 °F 10.4 °F 84% 30.35 in 10.0 mi NW 12.7 mph - N/A   Overcast
4:55 AM 14.0 °F 1.2 °F 10.0 °F 84% 30.34 in 10.0 mi NW 10.4 mph - N/A   Overcast
5:15 AM 14.0 °F 2.0 °F 10.4 °F 86% 30.35 in 10.0 mi NW 9.2 mph - N/A   Overcast
5:35 AM 13.6 °F 0.7 °F 10.0 °F 86% 30.34 in 10.0 mi NW 10.4 mph - N/A   Overcast
5:55 AM 13.6 °F 0.7 °F 10.0 °F 86% 30.36 in 10.0 mi NW 10.4 mph - N/A   Overcast
6:15 AM 12.7 °F 0.4 °F 7.3 °F 79% 30.36 in 10.0 mi NW 9.2 mph - N/A   Mostly Cloudy
6:35 AM 12.6 °F -2.0 °F 7.5 °F 80% 30.38 in 10.0 mi NW 12.7 mph 16.1 mph N/A   Scattered Clouds
6:55 AM 12.2 °F -3.1 °F 6.4 °F 78% 30.38 in 10.0 mi NW 13.8 mph 17.3 mph N/A   Mostly Cloudy
7:15 AM 12.6 °F -2.0 °F 6.8 °F 78% 30.39 in 10.0 mi NW 12.7 mph 17.3 mph N/A   Overcast
7:35 AM 12.2 °F -2.5 °F 5.5 °F 75% 30.39 in 10.0 mi NW 12.7 mph - N/A   Overcast
7:55 AM 12.2 °F -3.1 °F 6.4 °F 78% 30.39 in 10.0 mi NNW 13.8 mph - N/A   Overcast
8:15 AM 12.2 °F -1.0 °F 6.1 °F 76% 30.41 in 10.0 mi NW 10.4 mph 16.1 mph N/A   Overcast
8:35 AM 12.4 °F -1.6 °F 6.8 °F 78% 30.42 in 10.0 mi NW 11.5 mph - N/A   Overcast
8:55 AM 12.6 °F -0.6 °F 7.2 °F 79% 30.41 in 10.0 mi NW 10.4 mph - N/A   Overcast
9:15 AM 12.7 °F -0.4 °F 7.0 °F 78% 30.44 in 10.0 mi WNW 10.4 mph - N/A   Overcast
9:35 AM 13.5 °F -0.9 °F 7.3 °F 77% 30.43 in 10.0 mi NW 12.7 mph - N/A   Scattered Clouds
9:55 AM 13.5 °F -0.2 °F 6.8 °F 75% 30.43 in 10.0 mi NW 11.5 mph - N/A   Scattered Clouds
10:15 AM 13.1 °F -1.4 °F 5.5 °F 72% 30.43 in 10.0 mi NNW 12.7 mph 17.3 mph N/A   Scattered Clouds
10:35 AM 13.8 °F 0.2 °F 5.9 °F 71% 30.42 in 10.0 mi NNW 11.5 mph - N/A   Clear
10:55 AM 13.8 °F 0.2 °F 5.9 °F 71% 30.44 in 10.0 mi NW 11.5 mph 17.3 mph N/A   Clear
11:15 AM 14.0 °F 0.5 °F 5.5 °F 69% 30.43 in 10.0 mi NW 11.5 mph - N/A   Clear
11:35 AM 14.2 °F 0.7 °F 5.5 °F 69% 30.41 in 10.0 mi NW 11.5 mph - N/A   Clear
11:55 AM 14.5 °F -0.2 °F 5.9 °F 69% 30.40 in 10.0 mi NNW 13.8 mph 17.3 mph N/A   Clear
12:15 PM 15.4 °F 1.0 °F 6.3 °F 67% 30.41 in 10.0 mi NW 13.8 mph 17.3 mph N/A   Clear
12:35 PM 15.1 °F 1.1 °F 5.7 °F 66% 30.42 in 10.0 mi NW 12.7 mph 20.7 mph N/A   Clear
12:55 PM 15.3 °F 2.8 °F 5.2 °F 64% 30.42 in 10.0 mi NW 10.4 mph - N/A   Scattered Clouds
1:15 PM 15.6 °F 3.2 °F 5.7 °F 65% 30.42 in 10.0 mi WNW 10.4 mph - N/A   Mostly Cloudy
1:35 PM 15.8 °F 2.7 °F 5.0 °F 62% 30.41 in 10.0 mi NW 11.5 mph - N/A   Mostly Cloudy
1:55 PM 15.6 °F 4.0 °F 5.0 °F 63% 30.42 in 10.0 mi NW 9.2 mph - N/A   Overcast
2:15 PM 15.6 °F 1.2 °F 5.2 °F 63% 30.40 in 10.0 mi NNW 13.8 mph 18.4 mph N/A   Overcast
2:35 PM 15.6 °F 1.8 °F 5.2 °F 63% 30.42 in 10.0 mi NW 12.7 mph - N/A   Overcast
2:55 PM 16.3 °F 4.1 °F 5.4 °F 62% 30.41 in 10.0 mi NW 10.4 mph 16.1 mph N/A   Overcast
3:15 PM 16.7 °F 4.5 °F 5.2 °F 61% 30.42 in 10.0 mi NW 10.4 mph - N/A   Overcast
3:35 PM 16.7 °F 3.8 °F 5.2 °F 61% 30.43 in 10.0 mi NNW 11.5 mph 16.1 mph N/A   Overcast
3:55 PM 16.7 °F 3.2 °F 5.4 °F 61% 30.43 in 10.0 mi NW 12.7 mph 17.3 mph N/A   Overcast
4:15 PM 16.2 °F 4.7 °F 5.0 °F 62% 30.43 in 10.0 mi NW 9.2 mph - N/A   Overcast
4:35 PM 15.6 °F 3.2 °F 5.0 °F 63% 30.44 in 10.0 mi NW 10.4 mph - N/A   Overcast
5:55 PM 12.2 °F 2.9 °F 5.7 °F 75% 30.47 in 10.0 mi NW 5.8 mph - N/A   Clear
6:15 PM 11.1 °F 0.4 °F 5.5 °F 78% 30.48 in 10.0 mi NW 6.9 mph - N/A   Clear
6:35 PM 10.9 °F 1.4 °F 5.5 °F 79% 30.49 in 10.0 mi NW 5.8 mph - N/A   Clear
6:55 PM 10.8 °F 0.0 °F 5.9 °F 81% 30.49 in 10.0 mi WNW 6.9 mph - N/A   Clear
7:15 PM 10.9 °F -0.8 °F 5.9 °F 80% 30.50 in 10.0 mi NW 8.1 mph - N/A   Clear
7:35 PM 10.8 °F 0.0 °F 5.9 °F 81% 30.51 in 10.0 mi NW 6.9 mph - N/A   Clear
7:55 PM 10.4 °F -0.4 °F 5.7 °F 81% 30.51 in 10.0 mi NW 6.9 mph - N/A   Scattered Clouds
8:15 PM 9.9 °F 0.2 °F 5.5 °F 83% 30.52 in 10.0 mi WNW 5.8 mph - N/A   Clear
8:35 PM 9.5 °F -2.6 °F 5.5 °F 84% 30.53 in 10.0 mi NW 8.1 mph - N/A   Clear
8:55 PM 9.3 °F -1.7 °F 5.5 °F 85% 30.53 in 10.0 mi NW 6.9 mph - N/A   Clear
9:15 PM 9.5 °F -2.6 °F 5.5 °F 84% 30.54 in 10.0 mi WNW 8.1 mph - N/A   Scattered Clouds
9:35 PM 9.0 °F -2.2 °F 5.2 °F 85% 30.54 in 10.0 mi NW 6.9 mph - N/A   Scattered Clouds
9:55 PM 8.4 °F -1.6 °F 5.0 °F 86% 30.55 in 10.0 mi NW 5.8 mph - N/A   Scattered Clouds
10:15 PM 8.1 °F -0.5 °F 4.8 °F 87% 30.57 in 10.0 mi NW 4.6 mph - N/A   Clear
10:35 PM 7.5 °F -1.1 °F 4.5 °F 87% 30.57 in 10.0 mi NW 4.6 mph - N/A   Clear
10:55 PM 7.9 °F -2.2 °F 4.8 °F 87% 30.58 in 10.0 mi WNW 5.8 mph - N/A   Clear
11:15 PM 7.7 °F -0.9 °F 4.6 °F 87% 30.59 in 10.0 mi NW 4.6 mph - N/A   Clear
11:35 PM 7.7 °F -3.7 °F 4.8 °F 88% 30.59 in 10.0 mi NW 6.9 mph - N/A   Clear
11:55 PM 7.3 °F -1.3 °F 4.1 °F 87% 30.59 in 10.0 mi NW 4.6 mph - N/A   Clear